QPF
0.00 0.00 0.00 0.00 0.00 0.00 0.00 0.00 0.00 0.01 0.01 0.01 0.00 0.01 0.04 0.05 0.03 0.01 0.00 0.00 0.00 0.01 0.06 0.08 0.05 0.02 0.01 0.02 0.03 0.02 0.02 0.02 0.02 0.02 0.03 0.03 0.04 0.04 0.03 0.03 0.02 0.03 0.03 0.03
0.00 0.00 0.00 0.00 0.00 0.00 0.00 0.00 0.00 0.01 0.01 0.01 0.00 0.01 0.02 0.02 0.02 0.01 0.02 0.00 0.00 0.01 0.02 0.06 0.07 0.05 0.02 0.02 0.04 0.03 0.03 0.03 0.03 0.03 0.04 0.04 0.05 0.06 0.05 0.04 0.03 0.02 0.02 0.02
0.00 0.00 0.00 0.00 0.00 0.00 0.00 0.00 0.01 0.01 0.01 0.01 0.01 0.01 0.02 0.03 0.04 0.03 0.02 0.01 0.00 0.01 0.02 0.04 0.05 0.07 0.06 0.05 0.04 0.04 0.05 0.05 0.04 0.04 0.05 0.06 0.07 0.08 0.06 0.04 0.03 0.02 0.02 0.01
0.00 0.00 0.00 0.00 0.00 0.00 0.00 0.00 0.01 0.01 0.01 0.01 0.01 0.01 0.01 0.02 0.05 0.04 0.05 0.04 0.02 0.02 0.02 0.02 0.04 0.05 0.06 0.05 0.04 0.05 0.06 0.08 0.08 0.09 0.09 0.11 0.12 0.10 0.05 0.04 0.03 0.02 0.02 0.02
0.00 0.00 0.00 0.00 0.00 0.00 0.01 0.01 0.01 0.01 0.01 0.01 0.01 0.01 0.01 0.02 0.02 0.05 0.08 0.09 0.06 0.06 0.08 0.03 0.02 0.02 0.04 0.04 0.04 0.05 0.07 0.10 0.12 0.13 0.14 0.13 0.11 0.08 0.05 0.04 0.03 0.03 0.02 0.03
0.01 0.01 0.01 0.01 0.00 0.00 0.00 0.01 0.01 0.02 0.01 0.01 0.02 0.03 0.03 0.03 0.03 0.03 0.07 0.13 0.14 0.15 0.14 0.05 0.02 0.03 0.04 0.06 0.05 0.06 0.08 0.09 0.10 0.09 0.09 0.09 0.09 0.08 0.06 0.05 0.04 0.04 0.04 0.04
0.01 0.01 0.01 0.01 0.01 0.01 0.01 0.01 0.01 0.01 0.00 0.00 0.01 0.01 0.02 0.05 0.07 0.04 0.03 0.05 0.09 0.13 0.11 0.06 0.04 0.04 0.05 0.06 0.08 0.09 0.10 0.10 0.10 0.09 0.09 0.08 0.07 0.07 0.07 0.07 0.08 0.07 0.06 0.06
0.02 0.03 0.02 0.01 0.02 0.02 0.01 0.01 0.00 0.00 0.00 0.01 0.01 0.01 0.02 0.06 0.10 0.08 0.06 0.04 0.02 0.04 0.06 0.07 0.06 0.05 0.07 0.08 0.08 0.08 0.09 0.10 0.10 0.11 0.10 0.09 0.09 0.09 0.09 0.08 0.07 0.06 0.06 0.08
0.03 0.03 0.03 0.02 0.02 0.01 0.00 0.00 0.00 0.00 0.00 0.00 0.01 0.01 0.06 0.10 0.11 0.08 0.07 0.05 0.03 0.03 0.04 0.05 0.06 0.06 0.06 0.07 0.07 0.08 0.06 0.07 0.07 0.08 0.10 0.10 0.09 0.07 0.07 0.07 0.06 0.04 0.05 0.05
0.02 0.02 0.02 0.02 0.02 0.01 0.01 0.00 0.00 0.00 0.00 0.00 0.00 0.01 0.04 0.05 0.07 0.07 0.06 0.05 0.04 0.04 0.05 0.06 0.06 0.06 0.06 0.07 0.07 0.04 0.04 0.05 0.05 0.06 0.08 0.11 0.10 0.09 0.07 0.05 0.05 0.05 0.04 0.03
0.02 0.02 0.02 0.02 0.02 0.02 0.02 0.01 0.01 0.00 0.00 0.01 0.01 0.02 0.04 0.04 0.05 0.05 0.05 0.04 0.05 0.04 0.04 0.05 0.05 0.05 0.05 0.06 0.07 0.04 0.04 0.04 0.04 0.04 0.04 0.05 0.05 0.06 0.06 0.04 0.04 0.04 0.04 0.04
0.03 0.04 0.04 0.03 0.02 0.01 0.01 0.02 0.01 0.01 0.01 0.02 0.02 0.02 0.03 0.04 0.05 0.04 0.04 0.04 0.04 0.03 0.03 0.04 0.05 0.05 0.05 0.06 0.07 0.07 0.06 0.05 0.04 0.04 0.03 0.03 0.04 0.05 0.06 0.06 0.06 0.05 0.04 0.03
0.03 0.04 0.03 0.02 0.01 0.01 0.01 0.01 0.01 0.02 0.03 0.03 0.02 0.02 0.02 0.03 0.05 0.06 0.05 0.04 0.04 0.03 0.02 0.03 0.04 0.04 0.04 0.05 0.06 0.08 0.06 0.05 0.03 0.03 0.03 0.03 0.04 0.05 0.05 0.06 0.05 0.04 0.03 0.03
0.02 0.02 0.02 0.01 0.01 0.01 0.02 0.02 0.04 0.06 0.04 0.02 0.02 0.02 0.02 0.03 0.02 0.03 0.04 0.03 0.04 0.04 0.04 0.03 0.04 0.04 0.03 0.04 0.07 0.08 0.07 0.05 0.04 0.03 0.03 0.04 0.04 0.04 0.04 0.05 0.06 0.05 0.04 0.04
0.01 0.01 0.01 0.01 0.01 0.01 0.01 0.03 0.06 0.04 0.02 0.02 0.01 0.01 0.02 0.02 0.02 0.02 0.02 0.02 0.03 0.03 0.04 0.05 0.05 0.04 0.03 0.04 0.08 0.10 0.08 0.06 0.04 0.04 0.03 0.04 0.05 0.04 0.03 0.04 0.04 0.03 0.04 0.05
0.01 0.01 0.01 0.01 0.01 0.01 0.02 0.05 0.05 0.03 0.02 0.02 0.02 0.02 0.02 0.02 0.03 0.03 0.02 0.02 0.02 0.03 0.03 0.04 0.05 0.04 0.04 0.04 0.08 0.12 0.10 0.08 0.06 0.07 0.06 0.04 0.05 0.05 0.05 0.05 0.03 0.03 0.03 0.04
0.03 0.02 0.02 0.02 0.02 0.02 0.04 0.05 0.04 0.03 0.02 0.02 0.03 0.02 0.02 0.03 0.03 0.04 0.04 0.03 0.03 0.03 0.03 0.03 0.03 0.03 0.02 0.03 0.05 0.11 0.10 0.07 0.06 0.06 0.09 0.10 0.09 0.07 0.06 0.07 0.06 0.04 0.04 0.04
0.03 0.03 0.03 0.02 0.02 0.03 0.03 0.03 0.02 0.02 0.02 0.02 0.02 0.03 0.04 0.05 0.05 0.05 0.04 0.04 0.03 0.03 0.03 0.02 0.02 0.02 0.02 0.02 0.03 0.06 0.08 0.06 0.05 0.04 0.04 0.06 0.08 0.09 0.09 0.09 0.08 0.06 0.05 0.05
0.04 0.04 0.03 0.03 0.03 0.04 0.03 0.03 0.03 0.04 0.05 0.04 0.04 0.05 0.07 0.07 0.06 0.06 0.06 0.06 0.06 0.05 0.04 0.02 0.02 0.03 0.02 0.02 0.03 0.04 0.04 0.05 0.05 0.04 0.04 0.04 0.04 0.05 0.07 0.09 0.10 0.09 0.07 0.06
0.04 0.04 0.04 0.04 0.04 0.04 0.05 0.04 0.04 0.05 0.05 0.06 0.07 0.07 0.08 0.08 0.05 0.05 0.06 0.06 0.05 0.04 0.03 0.02 0.02 0.04 0.03 0.03 0.03 0.03 0.04 0.04 0.04 0.04 0.04 0.04 0.04 0.04 0.04 0.05 0.05 0.06 0.06 0.06
0.07 0.06 0.06 0.06 0.06 0.04 0.05 0.05 0.06 0.06 0.06 0.06 0.08 0.08 0.08 0.06 0.05 0.06 0.07 0.05 0.03 0.03 0.02 0.02 0.03 0.04 0.03 0.03 0.02 0.03 0.05 0.05 0.05 0.04 0.04 0.03 0.04 0.03 0.03 0.03 0.03 0.03 0.03 0.03
0.07 0.07 0.06 0.07 0.06 0.07 0.05 0.05 0.05 0.06 0.06 0.06 0.06 0.07 0.08 0.07 0.06 0.07 0.05 0.05 0.04 0.02 0.02 0.02 0.03 0.03 0.02 0.02 0.02 0.04 0.06 0.05 0.04 0.03 0.03 0.03 0.03 0.03 0.03 0.03 0.02 0.02 0.02 0.02
0.07 0.09 0.08 0.08 0.09 0.10 0.08 0.07 0.06 0.08 0.08 0.08 0.09 0.09 0.08 0.07 0.07 0.07 0.06 0.05 0.04 0.02 0.03 0.03 0.03 0.02 0.01 0.02 0.03 0.04 0.04 0.04 0.04 0.04 0.04 0.03 0.03 0.04 0.04 0.04 0.03 0.03 0.03 0.02
0.08 0.09 0.10 0.09 0.10 0.11 0.11 0.10 0.10 0.10 0.09 0.07 0.07 0.07 0.06 0.07 0.07 0.06 0.05 0.04 0.03 0.02 0.02 0.02 0.02 0.01 0.01 0.02 0.03 0.03 0.04 0.04 0.04 0.04 0.03 0.03 0.04 0.04 0.05 0.04 0.03 0.03 0.03 0.03
0.06 0.07 0.10 0.11 0.10 0.08 0.08 0.09 0.10 0.09 0.08 0.07 0.06 0.06 0.06 0.07 0.08 0.08 0.07 0.05 0.03 0.03 0.02 0.02 0.02 0.02 0.03 0.03 0.04 0.04 0.04 0.04 0.03 0.03 0.03 0.04 0.04 0.04 0.04 0.03 0.02 0.02 0.02 0.02
0.08 0.08 0.09 0.10 0.09 0.08 0.07 0.07 0.08 0.09 0.08 0.08 0.08 0.07 0.07 0.06 0.06 0.06 0.08 0.08 0.04 0.04 0.04 0.03 0.03 0.03 0.03 0.03 0.03 0.03 0.03 0.03 0.02 0.02 0.02 0.03 0.04 0.03 0.02 0.02 0.03 0.03 0.03 0.02
0.07 0.06 0.06 0.07 0.08 0.06 0.05 0.06 0.07 0.09 0.10 0.09 0.08 0.07 0.05 0.06 0.06 0.06 0.05 0.07 0.07 0.04 0.04 0.03 0.03 0.03 0.03 0.03 0.04 0.03 0.03 0.03 0.02 0.02 0.03 0.03 0.03 0.02 0.02 0.02 0.02 0.03 0.04 0.03
MSLP
1005.88 1005.86 1005.76 1005.65 1005.59 1005.64 1005.83 1006.15 1006.58 1007.09 1007.62 1008.15 1008.64 1009.06 1009.42 1009.71 1009.96 1010.18 1010.37 1010.53 1010.68 1010.80 1010.89 1010.93 1010.94 1010.91 1010.84 1010.73 1010.61 1010.45 1010.27 1010.05 1009.80 1009.50 1009.16 1008.77 1008.35 1007.92 1007.49 1007.08 1006.72 1006.42 1006.18 1006.00
1006.40 1006.35 1006.18 1005.95 1005.76 1005.67 1005.72 1005.93 1006.29 1006.77 1007.33 1007.91 1008.47 1008.98 1009.41 1009.76 1010.03 1010.24 1010.41 1010.55 1010.67 1010.77 1010.86 1010.94 1010.99 1011.02 1011.01 1010.96 1010.87 1010.74 1010.57 1010.36 1010.10 1009.80 1009.47 1009.11 1008.73 1008.35 1007.98 1007.63 1007.31 1007.03 1006.79 1006.58
1006.95 1006.88 1006.65 1006.35 1006.06 1005.86 1005.80 1005.92 1006.21 1006.66 1007.21 1007.81 1008.41 1008.96 1009.42 1009.79 1010.07 1010.27 1010.41 1010.52 1010.62 1010.72 1010.82 1010.92 1011.02 1011.10 1011.14 1011.14 1011.09 1010.98 1010.81 1010.58 1010.31 1010.00 1009.67 1009.33 1008.98 1008.64 1008.32 1008.02 1007.74 1007.48 1007.25 1007.02
1007.41 1007.33 1007.08 1006.74 1006.39 1006.12 1005.99 1006.04 1006.27 1006.68 1007.21 1007.80 1008.41 1008.97 1009.45 1009.82 1010.10 1010.29 1010.41 1010.50 1010.59 1010.69 1010.80 1010.93 1011.07 1011.19 1011.28 1011.31 1011.27 1011.16 1010.97 1010.73 1010.43 1010.10 1009.75 1009.41 1009.08 1008.77 1008.49 1008.22 1007.98 1007.75 1007.53 1007.30
1007.68 1007.59 1007.34 1006.99 1006.62 1006.32 1006.15 1006.16 1006.36 1006.73 1007.23 1007.82 1008.41 1008.97 1009.46 1009.84 1010.11 1010.30 1010.43 1010.52 1010.61 1010.72 1010.85 1011.01 1011.18 1011.33 1011.44 1011.48 1011.45 1011.32 1011.11 1010.83 1010.49 1010.13 1009.75 1009.40 1009.06 1008.77 1008.51 1008.29 1008.08 1007.88 1007.68 1007.46
1007.64 1007.56 1007.32 1006.99 1006.64 1006.34 1006.18 1006.17 1006.36 1006.71 1007.19 1007.76 1008.35 1008.91 1009.40 1009.80 1010.10 1010.31 1010.46 1010.58 1010.69 1010.83 1010.99 1011.17 1011.36 1011.53 1011.64 1011.68 1011.63 1011.48 1011.23 1010.91 1010.53 1010.13 1009.72 1009.34 1009.00 1008.71 1008.47 1008.27 1008.09 1007.92 1007.75 1007.56
1007.27 1007.19 1006.98 1006.69 1006.38 1006.13 1005.99 1006.01 1006.19 1006.54 1007.01 1007.58 1008.17 1008.74 1009.26 1009.68 1010.02 1010.28 1010.48 1010.65 1010.81 1010.98 1011.18 1011.38 1011.59 1011.76 1011.87 1011.90 1011.82 1011.64 1011.36 1010.99 1010.58 1010.13 1009.70 1009.29 1008.94 1008.65 1008.42 1008.23 1008.07 1007.93 1007.79 1007.63
1006.61 1006.54 1006.37 1006.14 1005.90 1005.70 1005.61 1005.66 1005.87 1006.22 1006.70 1007.26 1007.86 1008.46 1009.00 1009.48 1009.88 1010.20 1010.47 1010.70 1010.92 1011.14 1011.37 1011.60 1011.81 1011.98 1012.08 1012.09 1011.99 1011.78 1011.47 1011.07 1010.63 1010.16 1009.70 1009.28 1008.92 1008.62 1008.39 1008.21 1008.07 1007.95 1007.82 1007.69
1005.78 1005.73 1005.60 1005.44 1005.27 1005.15 1005.12 1005.22 1005.45 1005.81 1006.29 1006.86 1007.48 1008.10 1008.68 1009.21 1009.67 1010.07 1010.41 1010.71 1010.99 1011.26 1011.52 1011.76 1011.97 1012.13 1012.21 1012.20 1012.08 1011.85 1011.53 1011.12 1010.66 1010.18 1009.72 1009.29 1008.92 1008.62 1008.38 1008.21 1008.07 1007.96 1007.85 1007.74
1004.94 1004.91 1004.84 1004.75 1004.66 1004.61 1004.65 1004.78 1005.04 1005.42 1005.90 1006.47 1007.09 1007.73 1008.35 1008.92 1009.44 1009.91 1010.31 1010.67 1011.00 1011.30 1011.57 1011.82 1012.02 1012.16 1012.22 1012.19 1012.06 1011.82 1011.49 1011.09 1010.64 1010.17 1009.72 1009.29 1008.93 1008.62 1008.38 1008.19 1008.05 1007.94 1007.84 1007.73
1004.26 1004.26 1004.24 1004.22 1004.20 1004.22 1004.30 1004.48 1004.75 1005.14 1005.61 1006.18 1006.80 1007.44 1008.07 1008.68 1009.24 1009.74 1010.19 1010.59 1010.94 1011.25 1011.52 1011.75 1011.92 1012.04 1012.07 1012.02 1011.88 1011.65 1011.33 1010.95 1010.53 1010.09 1009.65 1009.25 1008.89 1008.58 1008.34 1008.14 1007.99 1007.86 1007.75 1007.64
1003.84 1003.87 1003.90 1003.93 1003.97 1004.04 1004.17 1004.37 1004.65 1005.03 1005.50 1006.04 1006.64 1007.27 1007.91 1008.52 1009.10 1009.62 1010.08 1010.49 1010.83 1011.13 1011.37 1011.56 1011.69 1011.76 1011.77 1011.69 1011.54 1011.32 1011.03 1010.68 1010.30 1009.90 1009.49 1009.12 1008.77 1008.47 1008.22 1008.02 1007.85 1007.71 1007.59 1007.46
1003.66 1003.71 1003.78 1003.86 1003.95 1004.06 1004.22 1004.43 1004.72 1005.09 1005.54 1006.06 1006.64 1007.25 1007.87 1008.47 1009.04 1009.55 1010.00 1010.38 1010.70 1010.95 1011.14 1011.27 1011.35 1011.38 1011.34 1011.24 1011.08 1010.87 1010.60 1010.29 1009.95 1009.60 1009.24 1008.89 1008.58 1008.29 1008.04 1007.83 1007.66 1007.51 1007.37 1007.23
1003.65 1003.72 1003.81 1003.92 1004.04 1004.18 1004.36 1004.59 1004.88 1005.24 1005.68 1006.18 1006.73 1007.32 1007.92 1008.50 1009.04 1009.53 1009.94 1010.29 1010.55 1010.75 1010.87 1010.94 1010.96 1010.92 1010.84 1010.72 1010.55 1010.34 1010.10 1009.83 1009.53 1009.23 1008.91 1008.61 1008.32 1008.05 1007.82 1007.61 1007.44 1007.29 1007.15 1007.02
1003.67 1003.74 1003.84 1003.96 1004.10 1004.27 1004.47 1004.72 1005.02 1005.38 1005.82 1006.31 1006.85 1007.42 1008.00 1008.56 1009.07 1009.52 1009.90 1010.19 1010.40 1010.53 1010.59 1010.59 1010.54 1010.46 1010.33 1010.18 1010.00 1009.80 1009.58 1009.35 1009.09 1008.83 1008.57 1008.30 1008.05 1007.81 1007.60 1007.41 1007.25 1007.11 1006.99 1006.88
1003.59 1003.65 1003.75 1003.88 1004.03 1004.22 1004.44 1004.71 1005.04 1005.42 1005.87 1006.37 1006.92 1007.48 1008.05 1008.58 1009.07 1009.49 1009.83 1010.08 1010.24 1010.31 1010.31 1010.25 1010.15 1010.02 1009.86 1009.68 1009.50 1009.31 1009.11 1008.90 1008.69 1008.47 1008.25 1008.03 1007.81 1007.61 1007.44 1007.28 1007.15 1007.04 1006.95 1006.88
1003.36 1003.40 1003.49 1003.61 1003.78 1003.99 1004.24 1004.55 1004.91 1005.32 1005.80 1006.32 1006.88 1007.45 1008.01 1008.54 1009.01 1009.41 1009.71 1009.92 1010.04 1010.07 1010.03 1009.93 1009.80 1009.63 1009.45 1009.26 1009.08 1008.90 1008.71 1008.53 1008.35 1008.17 1007.99 1007.82 1007.65 1007.49 1007.36 1007.24 1007.15 1007.09 1007.05 1007.02
1002.99 1003.01 1003.09 1003.22 1003.40 1003.63 1003.92 1004.26 1004.66 1005.11 1005.62 1006.17 1006.75 1007.33 1007.89 1008.41 1008.87 1009.24 1009.53 1009.71 1009.80 1009.81 1009.75 1009.63 1009.48 1009.30 1009.12 1008.93 1008.75 1008.58 1008.42 1008.27 1008.12 1007.97 1007.83 1007.70 1007.57 1007.46 1007.37 1007.31 1007.26 1007.25 1007.26 1007.29
1002.60 1002.61 1002.69 1002.82 1003.02 1003.28 1003.59 1003.97 1004.40 1004.89 1005.43 1005.99 1006.58 1007.16 1007.72 1008.22 1008.66 1009.02 1009.28 1009.45 1009.53 1009.53 1009.46 1009.35 1009.20 1009.03 1008.85 1008.68 1008.52 1008.37 1008.23 1008.10 1007.98 1007.86 1007.75 1007.66 1007.57 1007.51 1007.46 1007.45 1007.45 1007.49 1007.54 1007.61
1002.35 1002.36 1002.45 1002.59 1002.81 1003.08 1003.42 1003.82 1004.27 1004.77 1005.31 1005.88 1006.45 1007.02 1007.54 1008.02 1008.43 1008.76 1009.01 1009.16 1009.23 1009.23 1009.18 1009.08 1008.95 1008.80 1008.66 1008.51 1008.37 1008.25 1008.13 1008.02 1007.92 1007.82 1007.75 1007.68 1007.63 1007.61 1007.60 1007.62 1007.67 1007.74 1007.83 1007.93
1002.38 1002.41 1002.51 1002.67 1002.90 1003.18 1003.52 1003.92 1004.36 1004.85 1005.36 1005.90 1006.43 1006.95 1007.43 1007.86 1008.22 1008.52 1008.73 1008.87 1008.94 1008.95 1008.91 1008.84 1008.74 1008.63 1008.51 1008.40 1008.29 1008.19 1008.09 1008.00 1007.92 1007.85 1007.79 1007.75 1007.73 1007.73 1007.76 1007.82 1007.89 1007.99 1008.09 1008.21
1002.75 1002.81 1002.93 1003.10 1003.33 1003.60 1003.92 1004.29 1004.70 1005.14 1005.60 1006.07 1006.54 1006.99 1007.40 1007.76 1008.07 1008.31 1008.50 1008.61 1008.68 1008.70 1008.68 1008.63 1008.57 1008.50 1008.43 1008.35 1008.27 1008.20 1008.12 1008.05 1007.99 1007.93 1007.89 1007.86 1007.86 1007.89 1007.94 1008.01 1008.10 1008.21 1008.32 1008.43
1003.44 1003.53 1003.66 1003.83 1004.04 1004.29 1004.57 1004.88 1005.23 1005.60 1005.98 1006.37 1006.75 1007.11 1007.44 1007.73 1007.97 1008.16 1008.31 1008.41 1008.47 1008.49 1008.50 1008.49 1008.46 1008.43 1008.40 1008.36 1008.32 1008.27 1008.22 1008.16 1008.11 1008.07 1008.04 1008.03 1008.04 1008.08 1008.14 1008.22 1008.33 1008.43 1008.54 1008.63
1004.31 1004.43 1004.56 1004.72 1004.89 1005.09 1005.31 1005.55 1005.82 1006.10 1006.40 1006.70 1006.99 1007.26 1007.51 1007.73 1007.91 1008.06 1008.17 1008.26 1008.31 1008.36 1008.38 1008.40 1008.42 1008.43 1008.44 1008.44 1008.43 1008.41 1008.38 1008.35 1008.31 1008.28 1008.26 1008.26 1008.28 1008.33 1008.40 1008.49 1008.59 1008.69 1008.79 1008.86
1005.21 1005.33 1005.45 1005.57 1005.70 1005.83 1005.98 1006.15 1006.34 1006.54 1006.75 1006.97 1007.18 1007.38 1007.57 1007.73 1007.88 1007.99 1008.09 1008.16 1008.23 1008.29 1008.34 1008.39 1008.45 1008.50 1008.55 1008.59 1008.61 1008.63 1008.63 1008.62 1008.60 1008.58 1008.58 1008.58 1008.61 1008.66 1008.73 1008.83 1008.92 1009.02 1009.10 1009.15
1005.97 1006.07 1006.15 1006.23 1006.30 1006.37 1006.45 1006.55 1006.67 1006.80 1006.95 1007.11 1007.28 1007.44 1007.59 1007.73 1007.85 1007.95 1008.05 1008.13 1008.21 1008.29 1008.37 1008.46 1008.55 1008.64 1008.73 1008.81 1008.88 1008.93 1008.97 1008.99 1009.00 1009.00 1009.00 1009.02 1009.05 1009.11 1009.17 1009.26 1009.35 1009.43 1009.49 1009.53
1006.47 1006.54 1006.58 1006.60 1006.62 1006.63 1006.66 1006.71 1006.78 1006.88 1007.00 1007.14 1007.29 1007.44 1007.59 1007.73 1007.85 1007.96 1008.07 1008.17 1008.26 1008.37 1008.48 1008.60 1008.72 1008.85 1008.99 1009.11 1009.23 1009.32 1009.40 1009.46 1009.49 1009.52 1009.55 1009.57 1009.61 1009.66 1009.71 1009.78 1009.85 1009.91 1009.95 1009.96
Thickness
5781 5794 5799 5798 5802 5806 5800 5798 5790 5792 5794 5801 5809 5808 5808 5807 5805 5803 5804 5806 5806 5805 5804 5803 5803 5803 5804 5801 5800 5798 5793 5788 5785 5783 5780 5777 5775 5773 5770 5767 5765 5764 5762 5760
5764 5782 5789 5787 5795 5799 5800 5801 5798 5795 5794 5811 5811 5807 5802 5799 5795 5791 5792 5795 5796 5796 5795 5794 5792 5792 5794 5793 5792 5791 5786 5783 5780 5777 5774 5771 5768 5766 5764 5761 5759 5757 5756 5755
5744 5765 5769 5765 5786 5791 5793 5797 5795 5786 5793 5804 5798 5794 5790 5789 5786 5783 5783 5784 5786 5785 5786 5785 5785 5785 5783 5785 5785 5782 5779 5776 5774 5771 5767 5764 5762 5759 5756 5755 5753 5751 5750 5749
5734 5739 5726 5766 5797 5797 5788 5790 5795 5793 5794 5794 5790 5791 5789 5787 5781 5777 5776 5774 5774 5776 5777 5779 5779 5778 5777 5776 5774 5773 5770 5767 5765 5762 5759 5756 5754 5752 5751 5750 5748 5746 5744 5743
5722 5722 5735 5763 5779 5782 5773 5770 5784 5780 5780 5784 5786 5781 5773 5777 5776 5771 5768 5766 5765 5765 5765 5766 5768 5768 5767 5765 5765 5763 5761 5758 5756 5754 5750 5747 5745 5745 5744 5742 5741 5740 5739 5737
5713 5707 5712 5744 5770 5778 5766 5748 5767 5767 5765 5767 5767 5751 5750 5762 5763 5762 5759 5758 5755 5755 5753 5752 5755 5757 5755 5753 5752 5751 5751 5751 5749 5746 5743 5740 5739 5738 5737 5735 5734 5734 5733 5733
5705 5703 5718 5742 5757 5758 5728 5727 5750 5755 5753 5752 5746 5744 5747 5752 5750 5749 5747 5746 5745 5744 5742 5742 5744 5745 5742 5741 5740 5741 5742 5741 5740 5737 5735 5733 5732 5731 5730 5728 5727 5727 5726 5726
5701 5694 5701 5729 5734 5722 5720 5735 5738 5740 5740 5737 5737 5739 5740 5739 5737 5736 5734 5734 5734 5733 5732 5734 5735 5734 5731 5728 5730 5732 5731 5730 5729 5728 5727 5726 5724 5722 5721 5720 5718 5718 5717 5717
5698 5696 5708 5717 5717 5720 5724 5721 5723 5724 5726 5726 5724 5724 5725 5724 5724 5725 5724 5722 5723 5722 5720 5722 5723 5723 5719 5719 5721 5720 5719 5718 5718 5719 5719 5717 5715 5714 5713 5712 5710 5709 5709 5708
5691 5698 5704 5707 5710 5712 5712 5709 5712 5713 5714 5713 5711 5711 5711 5712 5712 5712 5712 5711 5712 5711 5710 5710 5711 5712 5711 5711 5711 5710 5708 5708 5708 5708 5708 5708 5707 5706 5704 5703 5702 5701 5700 5699
5677 5685 5689 5692 5694 5696 5698 5699 5700 5701 5702 5701 5699 5697 5699 5699 5699 5700 5700 5701 5700 5699 5698 5699 5701 5701 5701 5701 5700 5699 5699 5699 5700 5700 5699 5698 5696 5696 5696 5694 5694 5691 5690 5689
5662 5671 5671 5674 5682 5685 5683 5683 5685 5685 5687 5689 5688 5686 5687 5686 5688 5689 5688 5689 5689 5688 5688 5689 5690 5690 5691 5691 5690 5689 5689 5690 5692 5692 5691 5690 5688 5686 5685 5684 5683 5681 5680 5679
5662 5665 5665 5668 5671 5673 5672 5673 5675 5674 5675 5675 5677 5678 5676 5676 5677 5678 5678 5678 5678 5678 5678 5679 5679 5680 5681 5682 5681 5680 5679 5681 5683 5683 5682 5681 5679 5677 5674 5672 5670 5670 5669 5669
5655 5653 5651 5654 5656 5661 5662 5664 5664 5664 5665 5666 5667 5668 5668 5668 5668 5667 5667 5668 5669 5670 5669 5669 5670 5670 5672 5673 5672 5671 5671 5672 5672 5673 5673 5672 5671 5669 5668 5666 5663 5661 5659 5658
5644 5644 5644 5647 5649 5650 5651 5652 5651 5652 5654 5654 5656 5657 5658 5657 5657 5658 5660 5661 5661 5660 5660 5661 5660 5660 5662 5663 5662 5662 5663 5664 5665 5666 5666 5665 5663 5661 5659 5657 5655 5653 5652 5650
5635 5637 5636 5635 5637 5639 5640 5641 5640 5641 5643 5644 5644 5646 5648 5649 5648 5649 5650 5651 5650 5649 5651 5652 5651 5652 5653 5653 5652 5653 5654 5655 5656 5657 5657 5657 5655 5652 5649 5647 5646 5645 5644 5643
5623 5623 5624 5624 5627 5629 5631 5632 5632 5633 5634 5634 5636 5638 5638 5639 5638 5638 5640 5643 5643 5643 5644 5644 5644 5645 5646 5645 5645 5645 5647 5647 5647 5648 5648 5647 5645 5642 5640 5638 5637 5636 5635 5633
5622 5622 5622 5620 5621 5621 5623 5624 5625 5626 5625 5627 5629 5629 5628 5628 5628 5629 5632 5634 5635 5635 5635 5637 5638 5638 5638 5638 5637 5638 5638 5639 5640 5641 5640 5638 5636 5634 5632 5630 5628 5627 5626 5624
5619 5619 5618 5617 5617 5617 5616 5617 5618 5619 5618 5619 5619 5619 5619 5619 5620 5622 5623 5623 5623 5623 5626 5630 5629 5629 5631 5631 5630 5629 5630 5631 5632 5632 5631 5628 5626 5625 5624 5622 5620 5619 5618 5616
5614 5614 5613 5613 5612 5610 5609 5609 5610 5610 5611 5612 5612 5611 5611 5611 5613 5614 5614 5613 5616 5619 5621 5622 5622 5622 5624 5624 5621 5622 5623 5624 5624 5623 5621 5620 5619 5617 5616 5615 5613 5611 5609 5607
5606 5607 5607 5607 5606 5606 5606 5605 5605 5604 5604 5604 5604 5603 5604 5605 5606 5606 5606 5606 5609 5612 5613 5613 5613 5614 5615 5614 5614 5616 5616 5616 5616 5615 5613 5612 5610 5608 5607 5605 5604 5602 5601 5599
5598 5599 5600 5600 5600 5600 5601 5602 5601 5600 5599 5599 5599 5598 5598 5598 5599 5599 5600 5600 5602 5602 5604 5606 5606 5605 5606 5605 5608 5610 5609 5609 5608 5607 5605 5603 5601 5599 5598 5596 5595 5594 5592 5590
5594 5594 5594 5594 5593 5593 5595 5596 5596 5595 5594 5594 5593 5592 5592 5592 5592 5591 5591 5595 5597 5594 5596 5598 5596 5596 5595 5598 5600 5600 5600 5600 5599 5598 5596 5593 5592 5590 5588 5587 5586 5585 5584 5582
5590 5589 5589 5589 5590 5589 5588 5589 5589 5589 5589 5589 5588 5588 5587 5586 5586 5587 5588 5587 5587 5587 5589 5587 5586 5587 5587 5590 5591 5591 5590 5590 5589 5588 5586 5584 5583 5581 5579 5578 5577 5576 5575 5574
5586 5586 5586 5585 5584 5583 5583 5584 5584 5583 5583 5584 5584 5584 5584 5583 5581 5582 5582 5581 5578 5580 5581 5580 5578 5578 5581 5582 5582 5581 5581 5581 5581 5579 5578 5575 5574 5572 5570 5569 5568 5567 5566 5565
5583 5582 5582 5582 5581 5581 5581 5581 5579 5578 5578 5578 5578 5578 5578 5577 5577 5576 5576 5576 5574 5572 5573 5573 5572 5571 5573 5574 5573 5573 5572 5571 5571 5569 5568 5566 5565 5563 5562 5560 5559 5558 5556 5554
5580 5579 5579 5579 5579 5580 5579 5578 5576 5574 5574 5573 5572 5572 5572 5571 5570 5569 5568 5568 5568 5567 5567 5567 5566 5566 5566 5565 5564 5563 5562 5561 5559 5559 5558 5557 5555 5554 5552 5551 5549 5547 5545 5544